Weather History for Patuxent River, MD

Change the Weather History Date:

Wednesday, February 20, 2013

  Actual Average Record
Temperature  
Mean Temperature 36 °F -  
Max Temperature 43 °F 48 °F 51 °F (2014)
Min Temperature 28 °F 30 °F 28 °F (2014)
Degree Days  
Heating Degree Days 28    
Moisture  
Dew Point 18 °F    
Average Humidity 50    
Maximum Humidity 76    
Minimum Humidity 37    
Precipitation  
Precipitation 0.00 in - - ()
Sea Level Pressure  
Sea Level Pressure 30.00 in    
Wind  
Wind Speed 10 mph (WNW)    
Max Wind Speed 24 mph    
Max Gust Speed 32 mph    
Visibility 10 miles    
Events      
Averages and records for this station are not official NWS values.
T = Trace of Precipitation, MM = Missing Value Source: NWS Daily Summary

Daily Weather History Graph

Daily Weather History Graph

Search for Another Location

Airport:

Trip Planner

Search our weather history database for the weather conditions in past years. The results will help you decide how hot, cold, wet, or windy it might be!

Date:

Astronomy

Feb. 20, 2013 Rise Set
Actual Time 6:49 AM EST 5:49 PM EST
Civil Twilight 6:22 AM EST 6:16 PM EST
Nautical Twilight 5:51 AM EST 6:47 PM EST
Astronomical Twilight 5:21 AM EST 7:17 PM EST
Moon 1:11 PM EST (2/20) 3:05 AM EST (2/20)
Length of Visible Light 11h 53m
Length of Day
11h 00m
Waxing Gibbous, 76% of the Moon is Illuminated
Feb 20
Waxing Gibbous
Feb 25
Full
Mar 4
Last Quarter
Mar 11
New
Mar 19
First Quarter

Hourly Weather History & Observations

Time (EST) Temp. Windchill Dew Point Humidity Pressure Visibility Wind Dir Wind Speed Gust Speed Precip Events Conditions
12:52 AM 37.0 °F 32.4 °F 30.0 °F 76% 29.86 in 10.0 mi West 5.8 mph - N/A   Clear
1:52 AM 35.1 °F 30.1 °F 28.0 °F 76% 29.88 in 10.0 mi West 5.8 mph - N/A   Clear
2:52 AM 36.0 °F 29.6 °F 26.1 °F 67% 29.88 in 10.0 mi West 8.1 mph - N/A   Clear
3:52 AM 35.1 °F 30.1 °F 23.0 °F 61% 29.89 in 10.0 mi West 5.8 mph - N/A   Clear
4:52 AM 30.0 °F 25.2 °F 21.9 °F 72% 29.92 in 10.0 mi West 4.6 mph - N/A   Clear
5:12 AM 30.2 °F 26.7 °F 21.2 °F 69% 29.92 in 10.0 mi West 3.5 mph - N/A   Clear
5:52 AM 34.0 °F 28.8 °F 21.0 °F 59% 29.95 in 10.0 mi WNW 5.8 mph - N/A   Clear
6:52 AM 34.0 °F 23.8 °F 18.0 °F 52% 29.97 in 10.0 mi NW 16.1 mph - N/A   Partly Cloudy
7:52 AM 35.1 °F 25.9 °F 18.0 °F 50% 30.00 in 10.0 mi NW 13.8 mph - N/A   Partly Cloudy
8:52 AM 36.0 °F 26.3 °F 16.0 °F 44% 30.01 in 10.0 mi NW 16.1 mph 24.2 mph N/A   Partly Cloudy
9:52 AM 37.0 °F 27.7 °F 17.1 °F 44% 30.02 in 10.0 mi NW 16.1 mph 21.9 mph N/A   Scattered Clouds
10:52 AM 39.0 °F 29.9 °F 18.0 °F 43% 30.03 in 10.0 mi NW 17.3 mph - N/A   Scattered Clouds
11:52 AM 39.9 °F 32.1 °F 17.1 °F 40% 30.02 in 10.0 mi WNW 13.8 mph 21.9 mph N/A   Mostly Cloudy
12:52 PM 39.9 °F 31.8 °F 17.1 °F 40% 30.00 in 10.0 mi WNW 15.0 mph - N/A   Mostly Cloudy
1:52 PM 41.0 °F 33.5 °F 18.0 °F 40% 29.99 in 10.0 mi NW 13.8 mph - N/A   Scattered Clouds
2:52 PM 43.0 °F 38.2 °F 18.0 °F 37% 29.98 in 10.0 mi NW 8.1 mph 18.4 mph N/A   Scattered Clouds
3:52 PM 42.1 °F 35.7 °F 17.1 °F 37% 29.99 in 10.0 mi NW 11.5 mph 16.1 mph N/A   Scattered Clouds
4:52 PM 41.0 °F 33.9 °F 17.1 °F 38% 30.00 in 10.0 mi WNW 12.7 mph - N/A   Partly Cloudy
5:52 PM 37.9 °F 29.6 °F 15.1 °F 39% 30.04 in 10.0 mi NW 13.8 mph - N/A   Partly Cloudy
6:52 PM 36.0 °F 26.3 °F 14.0 °F 41% 30.08 in 10.0 mi NW 16.1 mph - N/A   Clear
7:52 PM 34.0 °F 22.1 °F 14.0 °F 44% 30.10 in 10.0 mi WNW 21.9 mph 32.2 mph N/A   Clear
8:52 PM 32.0 °F 20.1 °F 12.9 °F 45% 30.12 in 10.0 mi WNW 19.6 mph 29.9 mph N/A   Clear
9:52 PM 30.9 °F 19.1 °F 12.0 °F 46% 30.14 in 10.0 mi NW 18.4 mph - N/A   Clear
10:52 PM 30.0 °F 18.3 °F 10.9 °F 45% 30.15 in 10.0 mi NW 17.3 mph 23.0 mph N/A   Clear
11:52 PM 28.9 °F 14.8 °F 9.0 °F 43% 30.14 in 10.0 mi NW 24.2 mph 32.2 mph N/A   Clear